↑↓Torrent.by
Поиск
Логин: Регистрация
Пароль: Восстановить пароль

Игры

  ДатаКомментарии    РазмерПиры
2016-08-02 U Obscuritas (2016) PC | Repack от Art 3.43 GB ↑ 54 ↓ 3
2016-08-02 U SEGA Mega Drive and Genesis Classics Collection [v.1.0] (2010) PC | RePack от Let'sPlay 361.01 MB ↑ 616 ↓ 13
2016-08-01 U Lethe - Episode One (2016) PC | Repack от Other s 1.13 GB ↑ 60 ↓ 7
2016-08-01 U Sir, You Are Being Hunted (2013) PC | Steam-Rip от Let'sРlay 415.33 MB ↑ 90 ↓ 7
2016-08-01 U Dead by Daylight (2016) PC | Repack от Other s 2.94 GB ↑ 86 ↓ 17
2016-08-01 U Whispers(2016) PC | Repack от Other s 301.16 MB ↑ 42 ↓ 16
2016-08-01 U S.T.A.L.K.E.R.: Call of Pripyat - Бог С Нами (2016) PC | Repack от SeregA-Lus 3.40 GB ↑ 1456 ↓ 5
2016-08-01 U S.T.A.L.K.E.R.: Call of Pripyat - Призраки Прошлого 2 (2016) PC | Repack от SeregA-Lus 3.29 GB ↑ 4939 ↓ 216
2016-08-01 U SEGA Mega Drive and Genesis Classics Collection (2010) PC | Repack от Let'sРlay 356.56 MB ↑ 139 ↓ 7
2016-08-01 U Battlezone 98 Redux (2016) PC | Repack от Other s 1Комментарии1.72 GB ↑ 44 ↓ 4
2016-07-31 U Fly and Destroy (2016) PC | Repack от Other s 557.00 MB ↑ 53 ↓ 6
2016-07-31 U Blood Bowl 2 (2015) PC | Repack от Other s 4.26 GB ↑ 75 ↓ 2
2016-07-31 U Singularity (2010) PC | Repack от Other s 3.32 GB ↑ 1865 ↓ 137
2016-07-31 U S.T.A.L.K.E.R.: Lost Alpha. Eclipse mod (2016) PC | Repack от SeregA-Lus 7.98 GB ↑ 1932 ↓ 91
2016-07-31 U Темный лабиринт 3. Запретный сад. Коллекционное издание (2016) PC 1Комментарии1.54 GB ↑ 127 ↓ 16
2016-07-31 U Новогодний Стриптиз Снегурочки / IceGirl (2009) PC | L 57.54 MB ↑ 156 ↓ 1
2016-07-31 U Starbound [Update 1.0.3] (2016) PC | Repack от R.G. Alkad 726.22 MB ↑ 96 ↓ 0
2016-07-30 U Deputy Dangle (2016) PC | Repack от Other s 659.76 MB ↑ 39 ↓ 16
2016-07-30 U Crypt of the NecroDancer (2015) PC | Steam-Rip от Let'sРlay 6.37 GB ↑ 50 ↓ 2
2016-07-30 U Battlefleet Gothic: Armada (2016) PC | Repack от =nemos= 4.09 GB ↑ 100 ↓ 3
2016-07-30 U S.T.A.L.K.E.R.: Call of Pripyat - SGM 2.2 Lost Soul (2015) PC | Repack от SeregA-Lus 4.17 GB ↑ 418 ↓ 40
2016-07-30 U SEUM: Speedrunners from Hell (2016) PC | Repack от Other s 346.48 MB ↑ 37 ↓ 4
2016-07-30 U We Happy Few (2016) PC | Repack от Other s 3.02 GB ↑ 51 ↓ 14
2016-07-30 U Hard Reset Red (2016) PC | Repack от =nemos= 4.32 GB ↑ 82 ↓ 15
2016-07-30 U Tom vs. The Armies of Hell (2016) PC | Repack от Other s 685.35 MB ↑ 79 ↓ 6
2016-07-30 U Master of Orion [Early Access v 2.13.0.21] (2016) PC | Лицензия 3.98 GB ↑ 48 ↓ 5
2016-07-29 U Steam Squad (2016) PC | RePack от FitGirl 861.06 MB ↑ 76 ↓ 14
2016-07-29 U Сборник игр для взрослых (2005) PC 3.48 GB ↑ 114 ↓ 131
2016-07-29 U Копье Судьбы: Последнее путешествие (2016) PC 587.52 MB ↑ 148 ↓ 29
2016-07-28 U Steam Squad (2016) PC | Repack от Other's 901.00 MB ↑ 29 ↓ 21
2016-07-28 U We Are The Dwarves (2016) PC | Steam-Rip от Let'sРlay 1.70 GB ↑ 68 ↓ 11
2016-07-28 U Marvel: Ultimate Alliance 2 (2016) PC | Repack от =nemos= 4.90 GB ↑ 1359 ↓ 136
2016-07-28 U OddPlanet (2016) PC | Repack от Art 207.23 MB ↑ 493 ↓ 30
2016-07-28 U Minecraft: Story Mode - A Telltale Games Series. Episode 1-7 (2015) PC | RePack от R.G. Freedom 3.71 GB ↑ 198 ↓ 116
2016-07-28 U Terraria [v 1.3.2.1] (2011) PC | Repack 86.35 MB ↑ 1936 ↓ 30
2016-07-28 U Human: Fall Flat (2016) PC | RePack 361.54 MB ↑ 202 ↓ 22
2016-07-27 U Minecraft: Story Mode - A Telltale Games Series. Episode 1-7 (2016) PC | Repack от R.G. Freedom 3.71 GB ↑ 5120 ↓ 11
2016-07-27 U Kingdom Rush: Frontiers (2016) PC | Repack от Other's 304.95 MB ↑ 1275 ↓ 2
2016-07-27 U Marvel: Ultimate Alliance Bundle (2016) PC | Repack от Stinger 4.85 GB ↑ 3070 ↓ 110
2016-07-27 U The Shadowland (2016) PC | Repack от Other's 36.09 MB ↑ 41 ↓ 6
2016-07-26 U Guns, Gore & Cannoli (2015) PC |Steam-Rip от Let'sРlay 810.89 MB ↑ 174 ↓ 8
2016-07-26 U Starbound (2016) PC | Repack от Other's 718.26 MB ↑ 73 ↓ 8
2016-07-26 U Furi (2016) PC | Repack от Other's 1.43 GB ↑ 36 ↓ 2
2016-07-26 U Headlander (2016) PC | Repack от Other's 2.89 GB ↑ 29 ↓ 30
2016-07-26 U The Forest (2014) PC | Repack от R.G. Freedom 782.48 MB ↑ 57 ↓ 4
2016-07-26 U Секретная экспедиция 9. У истоков процветания. Колекционное издание (2016) PC 750.71 MB ↑ 286 ↓ 28
2016-07-26 U Лига Света 4: Стяжатель . Коллекционное издание (2016) PC 676.78 MB ↑ 236 ↓ 22
2016-07-26 U The Banner Saga 2 (2016) РС | RePack от xatab 5Комментарии3.57 GB ↑ 400 ↓ 88
2016-07-26 U Sniper: Ghost Warrior 2 [v 1.09] (2013) РС | Repack от =nemos= 5.91 GB ↑ 179 ↓ 109
2016-07-25 U Bohemian Killing (2016) PC | Repack от Other's 1.39 GB ↑ 72 ↓ 16
2016-07-25 U The Incredible Adventures of Van Helsing: Final Cut (2015) PC | RePack от =nemos= 12.77 GB ↑ 69 ↓ 13
2016-07-25 U The Banner Saga 2 (2016) PC | RePack от xatab 3.57 GB ↑ 38 ↓ 10
2016-07-25 U World Of Undead (2016) PC | Repack от Other's 1,002.46 MB ↑ 800 ↓ 58
2016-07-25 U DreamBreak (2016) PC | Repack от Other's 43.48 MB ↑ 90 ↓ 1
2016-07-25 U Contrast: Collector's Edition (2013) PC | Steam-Rip от Let'sРlay 1.76 GB ↑ 92 ↓ 1
2016-07-25 U 10 Second Ninja X (2014) PC | Repack от Other's 207.78 MB ↑ 75 ↓ 2
2016-07-25 U Cast of the Seven Godsends - Redux (2015) PC | Repack от Other's 437.20 MB ↑ 97 ↓ 1
2016-07-25 U Sniper: Ghost Warrior: Gold Edition (2010) PC | RePack от =nemos= 1.46 GB ↑ 533 ↓ 18
2016-07-24 U The Age of Decadence [v1.2.0.0153] (2015) PC Лицензия 5Комментарии1.03 GB ↑ 146 ↓ 9
2016-07-24 U DiRT Rally [v 1.200] (2015) PC | RePack от =nemos= 14.79 GB ↑ 182 ↓ 81
2016-07-24 U Tempest [Early Access] (2016) PC 120.30 MB ↑ 223 ↓ 14
2016-07-23 U Joe Dever's: Lone Wolf HD Remastered (2014) PC | RePack от Other s 1.29 GB ↑ 46 ↓ 13
2016-07-23 U DiRT Rally (2015) PC | RePack от =nemos= 14.78 GB ↑ 59 ↓ 20
2016-07-23 U Zombie Night Terror (2016) PC | Repack от Other's 489.13 MB ↑ 681 ↓ 10
2016-07-23 U Невероятный Дракула 2. Последний звонок. Коллекционное издание (2016) PC 1Комментарии660.90 MB ↑ 137 ↓ 1
2016-07-22 U Aliens: Colonial Marines (2013) PC | RePack от =nemos= 1Комментарии8.76 GB ↑ 9067 ↓ 278
2016-07-21 U Zombie Night Terror (2016) PC | Лицензия 602.14 MB ↑ 2191 ↓ 14
2016-07-20 U Край реальности: Кольцо судьбы. Коллекционное издание (2016) PC 1.04 GB ↑ 126 ↓ 39
2016-07-12 U Haven Moon (2016) PC | Лицензия 1Комментарии710.20 MB ↑ 3942 ↓ 4
2016-07-12 U Europa Universalis IV [v1.17.1.0 +47 DLC] (2013) PC | RePack 1Комментарии1.89 GB ↑ 676 ↓ 11
2016-07-12 U Blades of Time [v1.6 + 3 DLC] (2012) PC | RePack от =nemos= 2.18 GB ↑ 851 ↓ 139
2016-07-12 U Krai Mira (2016) PC | Лицензия 1.72 GB ↑ 207 ↓ 81
2016-07-12 U Arma 3: Apex Edition [v 1.62 + 7 DLC] (2013) PC | RePack от xatab 18.59 GB ↑ 503 ↓ 153
2016-07-12 U Krai Mira (2016) PC | RePack by NemreT 1.36 GB ↑ 4530 ↓ 0
2016-07-11 U Fossil Echo (2016) PC | Лицензия 1Комментарии1.39 GB ↑ 75 ↓ 20
2016-07-11 U Полуночный зов 2: Джеронимо. Коллекционное издание (2016) PC 807.48 MB ↑ 116 ↓ 37
2016-07-08 U Bounty Train - Trainium Edition [v 0.9670] (2016) | RePack от Valdeni 2Комментарии600.68 MB ↑ 108 ↓ 14
2016-07-08 U Роман тьмы 3. Лебединое озеро. Коллекционное издание (2016) PC 1Комментарии1.11 GB ↑ 51 ↓ 46
2016-07-08 U Ridge (2016) PC | Лицензия 1.74 GB ↑ 720 ↓ 71
2016-07-07 U Lost Sea [v1.01] (2016) PC | Лицензия 365.92 MB ↑ 70 ↓ 5
2016-07-06 U Stardew Valley [v 1.07 Hotfix] (2016) | RePack от Valdeni 262.47 MB ↑ 156 ↓ 36
2016-07-06 U Lost Sea (2016) PC | Лицензия 565.88 MB ↑ 54 ↓ 5
2016-07-05 U Furi (2016) PC | Лицензия 2.00 GB ↑ 115 ↓ 28
2016-07-04 U Покинутые места 2: Обретенный замок (2016) PC 443.01 MB ↑ 286 ↓ 32
2016-07-01 U Hard Reset Redux [Update 1] (2016) PC | RePack от xatab 4.32 GB ↑ 189 ↓ 86
2016-07-01 U Hearts of Iron IV: Field Marshal Edition [v 1.1.0] (2016) PC | RePack от xatab 745.33 MB ↑ 4960 ↓ 8
2016-06-30 U Euro Truck Simulator 2 [v 1.24.3s + 40 DLC] (2013) PC | RePack от xatab 1Комментарии1.49 GB ↑ 308 ↓ 14
2016-06-29 U Тайны духов 6: Семейная ложь / Spirits of Mystery 6: Family Lies CE (2016) PC 857.87 MB ↑ 291 ↓ 24
2016-06-28 U Arma 3 APEX [v 1.62.0.137126 + 7 DLC] (2013) PC | RePack от xatab 17.32 GB ↑ 706 ↓ 205
2016-06-27 U American Truck Simulator [v 1.3.1.1s + 7 DLC] (2016) PC | RePack от R.G. Механики 853.63 MB ↑ 229 ↓ 17
2016-06-25 U Wolcen: Lords of Mayhem [v.0.2.3] (2016) PC | Лицензия 5.81 GB ↑ 227 ↓ 104
2016-06-23 U Umbrella Corps / Biohazard Umbrella Corps (2016) PC | RePack 1Комментарии3.49 GB ↑ 167 ↓ 65
2016-06-22 U Umbrella Corps / Biohazard Umbrella Corps (2016) PC | RePack от Valdeni 3.47 GB ↑ 3423 ↓ 1
2016-06-22 U Внешние пределы 9: Потерянные сказки. Коллекционное издание (2016) PC 663.61 MB ↑ 345 ↓ 40
2016-06-22 U Umbrella Corps / Biohazard Umbrella Corps (2016) PC | Лицензия 3.63 GB ↑ 104 ↓ 58
2016-06-21 U Youtubers Life (2016) PC | Repack 447.42 MB ↑ 30035 ↓ 485
2016-06-20 U DiRT Rally [v.1.100] (2015) PC | Steam-Rip от Let'sРlay 39.87 GB ↑ 2232 ↓ 796
2016-06-20 U Blackhole: Complete Edition (2015) PC | RePack от R.G. Механики 716.87 MB ↑ 149 ↓ 0
2016-06-20 U Euro Truck Simulator 2 [v 1.24.2.2s + 37 DLC] (2013) PC | RePack от R.G. Механики 1.41 GB ↑ 282 ↓ 49
2016-06-20 U Total War: ATTILA [v 1.6.0 + 8 DLC] (2015) PC | RePack от xatab 9.29 GB ↑ 1085 ↓ 180

Страницы: 1 2 3 ... 39 40 41 42 43 ... 60 61 62

Обратная связь
Copyleft ©